This is the latest recevied weather packets stored in our database for station/object IZ5MMH-1. If no packets are shown the sender has not sent any weather packets the latest 10 day(s).
| Time | Temp. | Humidity | Pressure | Rain* | Wind** | Luminosity | Snow |
|---|---|---|---|---|---|---|---|
| 1787611104 | 25° C | 58% | 1011.9 hPa | - | - | - | - |
| 1787610503 | 25° C | 58% | 1012 hPa | - | - | - | - |
| 1787609903 | 25° C | 58% | 1012.4 hPa | - | - | - | - |
| 1787609303 | 24.44° C | 59% | 1011.6 hPa | - | - | - | - |
| 1787608702 | 24.44° C | 59% | 1011.5 hPa | - | - | - | - |
| 1787608103 | 24.44° C | 57% | 1011.7 hPa | - | - | - | - |
| 1787607502 | 24.44° C | 57% | 1012.1 hPa | - | - | - | - |
| 1787606902 | 25° C | 57% | 1012.2 hPa | - | - | - | - |
| 1787606303 | 25° C | 57% | 1012.4 hPa | - | - | - | - |
| 1787605703 | 25.56° C | 56% | 1012 hPa | - | - | - | - |
| 1787605103 | 26.11° C | 55% | 1012.2 hPa | - | - | - | - |
| 1787604503 | 26.11° C | 55% | 1012.7 hPa | - | - | - | - |
| 1787603902 | 26.11° C | 55% | 1013 hPa | - | - | - | - |
| 1787603302 | 26.11° C | 54% | 1013.1 hPa | - | - | - | - |
| 1787602705 | 26.67° C | 57% | 1013.3 hPa | - | - | - | - |
| 1787602103 | 26.67° C | 57% | 1013.7 hPa | - | - | - | - |
| 1787601503 | 26.67° C | 53% | 1014.2 hPa | - | - | - | - |
| 1787600903 | 26.67° C | 53% | 1014.4 hPa | - | - | - | - |
| 1787600303 | 27.22° C | 53% | 1014.6 hPa | - | - | - | - |
| 1787599702 | 27.22° C | 54% | 1014.5 hPa | - | - | - | - |
| 1787599103 | 27.22° C | 53% | 1013.8 hPa | - | - | - | - |
| 1787598502 | 27.22° C | 54% | 1014 hPa | - | - | - | - |
| 1787597903 | 27.22° C | 50% | 1014.3 hPa | - | - | - | - |
| 1787597302 | 27.22° C | 51% | 1014.5 hPa | - | - | - | - |
| 1787596703 | 27.78° C | 51% | 1015 hPa | - | - | - | - |
* Rain since midnight (hover to see other rain measurements)
** Current wind speed in m/s (hover to see current wind gust speed)